Weather in Naumovo

Russia / Pskov Oblast     56°16′26″N   31°19′25″E
temp.,
°C
wind,
m/s
gust,
m/s
humid.,
%
clouds,
%
prec.,
mm/h
press.,
hPa
HPBL,
m
22 january, sat
sat2200:00−7nne2696100 0.2 997250
03:00−11nne269655 0.3 1000148
06:00−12n2697100 0.0 1003131
09:00−9nnw3995100 0.2 1005383
12:00−6n489298 0.6 1007665
15:00−7n4789100 0.8 1009566
18:00−10n399499 0.0 1013316
21:00−11n399582 0.1 1015275
23 january, sun
sun2300:00−12n389676 0.0 1017203
03:00−14n379772 0.1 1020139
06:00−14nne279669 0.1 1023167
09:00−16ne259731 0.1 102681
12:00−10ne129161 0.0 1028136
15:00−7nnw129068 0.0 1030197
18:00−13n119969 0.0 10339
21:00−15ese119973 0.0 10359
24 january, mon
mon2400:00−16sw119971 0.0 10389
03:00−17s119973 0.0 103811
06:00−17sw119966 0.0 10389
09:00−17s229966 0.0 103938
12:00−10s24915 0.0 1039148
15:00−7s368913 0.0 1037256
18:00−12s269762 0.0 1036103
21:00−12s3109631 0.0 1035181
25 january, tue
tue2500:00−12s311956 0.0 1033222
03:00−12s413935 0.0 1030258
06:00−12ssw4149021 0.0 1027282
09:00−11s41385100 0.0 1025314
12:00−8ssw41294100 0.4 1022347
15:00−6ssw4994100 1.1 1020369
18:00−6ssw3796100 1.2 1019309
21:00−5sw2597100 2.0 1018200
26 january, wed
wed2600:00−5nw1697100 0.3 1018184
03:00−4n4893100 0.5 1019461
06:00−5nnw3896100 0.1 1020338
09:00−5nnw499495 0.3 1021462
12:00−5n489096 0.1 1022554
15:00−7nnw379285 0.1 1022379
18:00−13nnw259982 0.0 102262
21:00−16n11100100 0.0 10239